timestamp,surface_pressure_avg,surface_temp_avg,battery_voltage,lat,long
2019-10-06 00:00:00+00:00,260.9882,9.39,12.89,47.84626,-54.09684
2019-10-06 00:10:00+00:00,261.7898,9.39,12.81,47.84626,-54.09684
2019-10-06 00:20:00+00:00,258.2214,9.4,12.89,47.84626,-54.09684
2019-10-06 00:30:00+00:00,253.2031,9.39,12.97,47.84626,-54.09684
2019-10-06 00:40:00+00:00,247.9565,9.37,12.97,47.84626,-54.09684
2019-10-06 00:50:00+00:00,250.183,9.36,12.97,47.84626,-54.09684
2019-10-06 01:00:00+00:00,248.3831,9.36,12.89,47.84626,-54.09684
2019-10-06 01:10:00+00:00,246.3915,9.33,12.81,47.84626,-54.09684
2019-10-06 01:20:00+00:00,250.3398,9.33,12.89,47.84626,-54.09684
2019-10-06 01:30:00+00:00,253.5814,9.34,12.89,47.84626,-54.09684
2019-10-06 01:40:00+00:00,252.0798,9.3,12.97,47.84626,-54.09684
2019-10-06 01:50:00+00:00,255.0997,9.3,12.97,47.84626,-54.09684
2019-10-06 02:00:00+00:00,266.4347,9.3,12.89,47.84626,-54.09684
2019-10-06 02:10:00+00:00,270.583,9.3,12.81,47.84626,-54.09684
2019-10-06 02:20:00+00:00,266.1964,9.3,12.89,47.84626,-54.09684
2019-10-06 02:30:00+00:00,267.7314,9.3,12.89,47.84626,-54.09684
2019-10-06 02:40:00+00:00,278.6314,9.3,12.97,47.84626,-54.09684
2019-10-06 02:50:00+00:00,286.1364,9.23,12.97,47.84626,-54.09684
2019-10-06 03:00:00+00:00,286.178,9.24,12.89,47.84626,-54.09684
2019-10-06 03:10:00+00:00,291.1614,9.23,12.81,47.84626,-54.09684
2019-10-06 03:20:00+00:00,301.458,9.2,12.89,47.84626,-54.09684
2019-10-06 03:30:00+00:00,307.3748,9.2,12.89,47.84626,-54.09684
2019-10-06 03:40:00+00:00,306.8229,9.2,12.89,47.84626,-54.09684
2019-10-06 03:50:00+00:00,309.8331,9.2,12.89,47.84626,-54.09684
2019-10-06 04:00:00+00:00,313.9464,9.2,12.81,47.84626,-54.09684
2019-10-06 04:10:00+00:00,314.503,9.2,12.73,47.84626,-54.09684
2019-10-06 04:20:00+00:00,314.6196,9.2,12.89,47.84626,-54.09684
2019-10-06 04:30:00+00:00,316.7662,9.2,12.89,47.84626,-54.09684
2019-10-06 04:40:00+00:00,321.2114,9.2,12.89,47.84626,-54.09684
2019-10-06 04:50:00+00:00,323.6978,9.19,12.89,47.84626,-54.09684
2019-10-06 05:00:00+00:00,326.3563,9.15,12.81,47.84626,-54.09684
2019-10-06 05:10:00+00:00,329.1545,9.13,12.73,47.84626,-54.09684
2019-10-06 05:20:00+00:00,333.528,9.1,12.81,47.84626,-54.09684
2019-10-06 05:30:00+00:00,332.5332,9.1,12.81,47.84626,-54.09684
2019-10-06 05:40:00+00:00,332.9896,9.1,12.89,47.84626,-54.09684
2019-10-06 05:50:00+00:00,331.903,9.1,12.89,47.84626,-54.09684
2019-10-06 06:00:00+00:00,336.708,9.1,12.81,47.84626,-54.09684
2019-10-06 06:10:00+00:00,335.9547,9.1,12.73,47.84626,-54.09684
2019-10-06 06:20:00+00:00,330.3746,9.1,12.81,47.84626,-54.09684
2019-10-06 06:30:00+00:00,329.808,9.1,12.81,47.84626,-54.09684
2019-10-06 06:40:00+00:00,329.8829,9.1,12.89,47.84626,-54.09684
2019-10-06 06:50:00+00:00,327.4029,9.1,12.89,47.84626,-54.09684
2019-10-06 07:00:00+00:00,320.4296,9.1,12.81,47.84626,-54.09684
2019-10-06 07:10:00+00:00,316.5447,9.1,12.73,47.84626,-54.09684
2019-10-06 07:20:00+00:00,312.8164,9.1,12.81,47.84626,-54.09684
2019-10-06 07:30:00+00:00,305.183,9.1,12.81,47.84626,-54.09684
2019-10-06 07:40:00+00:00,297.7363,9.1,12.81,47.84626,-54.09684
2019-10-06 07:50:00+00:00,295.1914,9.1,12.81,47.84626,-54.09684
2019-10-06 08:00:00+00:00,288.7281,9.09,12.73,47.84626,-54.09684
2019-10-06 08:10:00+00:00,279.493,9.02,12.65,47.84626,-54.09684
2019-10-06 08:20:00+00:00,275.1914,9.0,12.81,47.84626,-54.09684
2019-10-06 08:30:00+00:00,274.5797,9.0,12.81,47.84626,-54.09684
2019-10-06 08:40:00+00:00,268.5831,9.0,12.81,47.84626,-54.09684
2019-10-06 08:50:00+00:00,261.1331,9.0,12.81,47.84626,-54.09684
2019-10-06 09:00:00+00:00,256.9997,9.0,12.73,47.84626,-54.09684
2019-10-06 09:10:00+00:00,254.3214,9.0,12.65,47.84626,-54.09684
2019-10-06 09:20:00+00:00,249.8881,9.0,12.73,47.84626,-54.09684
2019-10-06 09:30:00+00:00,245.4948,9.0,12.81,47.84626,-54.09684
2019-10-06 09:40:00+00:00,242.3181,9.0,12.81,47.84626,-54.09684
2019-10-06 09:50:00+00:00,240.0065,9.0,12.81,47.84626,-54.09684
2019-10-06 10:00:00+00:00,238.7497,9.0,12.81,47.84626,-54.09684
2019-10-06 10:10:00+00:00,238.2014,9.0,12.89,47.84626,-54.09684
2019-10-06 10:20:00+00:00,236.8965,9.0,13.37,47.84626,-54.09684
2019-10-06 10:30:00+00:00,234.2413,9.0,13.76,47.84626,-54.09684
2019-10-06 10:40:00+00:00,234.6381,9.0,14.24,47.84626,-54.09684
2019-10-06 10:50:00+00:00,235.2781,9.0,14.88,47.84626,-54.09684
2019-10-06 11:00:00+00:00,234.3014,9.0,14.96,47.84626,-54.09684
2019-10-06 11:10:00+00:00,235.1481,9.0,15.51,47.84626,-54.09684
2019-10-06 11:20:00+00:00,237.4081,9.0,16.55,47.84626,-54.09684
2019-10-06 11:30:00+00:00,237.8431,9.0,16.63,47.84626,-54.09684
2019-10-06 11:40:00+00:00,238.4732,9.0,16.55,47.84626,-54.09684
2019-10-06 11:50:00+00:00,241.9348,9.0,16.39,47.84626,-54.09684
2019-10-06 12:00:00+00:00,246.4397,9.0,15.27,47.84626,-54.09684
2019-10-06 12:10:00+00:00,246.2147,9.0,15.2,47.84626,-54.09684
2019-10-06 12:20:00+00:00,245.3748,8.99,15.35,47.84626,-54.09684
2019-10-06 12:30:00+00:00,245.3598,8.92,15.27,47.84626,-54.09684
2019-10-06 12:40:00+00:00,248.8114,8.9,15.27,47.84626,-54.09684
2019-10-06 12:50:00+00:00,248.5247,8.92,15.27,47.84626,-54.09684
2019-10-06 13:00:00+00:00,247.713,8.92,15.04,47.84626,-54.09684
2019-10-06 13:10:00+00:00,247.558,8.92,15.04,47.84626,-54.09684
2019-10-06 13:20:00+00:00,251.7031,8.93,15.11,47.84626,-54.09684
2019-10-06 13:30:00+00:00,252.7014,8.96,15.11,47.84626,-54.09684
2019-10-06 13:40:00+00:00,253.9647,8.98,15.04,47.84626,-54.09684
2019-10-06 13:50:00+00:00,255.0747,8.99,15.04,47.84626,-54.09684
2019-10-06 14:00:00+00:00,259.1397,8.99,14.88,47.84626,-54.09684
2019-10-06 14:10:00+00:00,262.2097,9.0,14.88,47.84626,-54.09684
2019-10-06 14:20:00+00:00,264.8614,9.0,14.96,47.84626,-54.09684
2019-10-06 14:30:00+00:00,265.7181,9.0,14.64,47.84626,-54.09684
2019-10-06 14:40:00+00:00,271.1697,9.0,14.8,47.84626,-54.09684
2019-10-06 14:50:00+00:00,277.108,9.01,14.48,47.84626,-54.09684
2019-10-06 15:00:00+00:00,281.7097,9.0,14.48,47.84626,-54.09684
2019-10-06 15:10:00+00:00,285.7814,9.0,14.32,47.84626,-54.09684
2019-10-06 15:20:00+00:00,295.0947,9.02,14.4,47.84626,-54.09684
2019-10-06 15:30:00+00:00,302.0347,9.05,14.4,47.84626,-54.09684
2019-10-06 15:40:00+00:00,303.5396,9.1,14.32,47.84626,-54.09684
2019-10-06 15:50:00+00:00,305.3313,9.1,14.64,47.84626,-54.09684
2019-10-06 16:00:00+00:00,310.0614,9.12,14.64,47.84626,-54.09684
2019-10-06 16:10:00+00:00,312.5547,9.12,14.8,47.84626,-54.09684
2019-10-06 16:20:00+00:00,312.5213,9.17,14.8,47.84626,-54.09684
2019-10-06 16:30:00+00:00,315.8296,9.2,14.8,47.84626,-54.09684
2019-10-06 16:40:00+00:00,321.0746,9.18,14.72,47.84626,-54.09684
2019-10-06 16:50:00+00:00,323.2996,9.17,14.72,47.84626,-54.09684
2019-10-06 17:00:00+00:00,324.9749,9.19,14.56,47.84626,-54.09684
2019-10-06 17:10:00+00:00,327.5613,9.2,14.56,47.84626,-54.09684
2019-10-06 17:20:00+00:00,328.978,9.17,14.64,47.84626,-54.09684
2019-10-06 17:30:00+00:00,328.3281,9.18,14.56,47.84626,-54.09684
2019-10-06 17:40:00+00:00,327.3496,9.19,14.56,47.84626,-54.09684
2019-10-06 17:50:00+00:00,329.1996,9.17,14.56,47.84626,-54.09684
2019-10-06 18:00:00+00:00,325.343,9.19,14.4,47.84626,-54.09684
2019-10-06 18:10:00+00:00,325.3463,9.19,14.32,47.84626,-54.09684
2019-10-06 18:20:00+00:00,326.5463,9.19,14.4,47.84626,-54.09684
2019-10-06 18:30:00+00:00,324.7163,9.2,14.4,47.84626,-54.09684
2019-10-06 18:40:00+00:00,321.7946,9.2,14.32,47.84626,-54.09684
2019-10-06 18:50:00+00:00,322.0298,9.2,14.32,47.84626,-54.09684
2019-10-06 19:00:00+00:00,321.2446,9.2,14.16,47.84626,-54.09684
2019-10-06 19:10:00+00:00,317.1462,9.2,14.08,47.84626,-54.09684
2019-10-06 19:20:00+00:00,315.193,9.22,14.08,47.84626,-54.09684
2019-10-06 19:30:00+00:00,313.903,9.3,14.0,47.84626,-54.09684
2019-10-06 19:40:00+00:00,310.8963,9.3,14.0,47.84626,-54.09684
2019-10-06 19:50:00+00:00,306.2913,9.32,14.0,47.84626,-54.09684
2019-10-06 20:00:00+00:00,300.9747,9.34,13.92,47.84626,-54.09684
2019-10-06 20:10:00+00:00,298.3264,9.3,13.76,47.84626,-54.09684
2019-10-06 20:20:00+00:00,293.6031,9.29,13.76,47.84626,-54.09684
2019-10-06 20:30:00+00:00,285.8713,9.27,13.68,47.84626,-54.09684
2019-10-06 20:40:00+00:00,280.8897,9.28,13.68,47.84626,-54.09684
2019-10-06 20:50:00+00:00,276.3831,9.29,13.6,47.84626,-54.09684
2019-10-06 21:00:00+00:00,269.0181,9.3,13.53,47.84626,-54.09684
2019-10-06 21:10:00+00:00,262.7431,9.3,13.37,47.84626,-54.09684
2019-10-06 21:20:00+00:00,260.7364,9.3,13.29,47.84626,-54.09684
2019-10-06 21:30:00+00:00,255.9664,9.3,13.29,47.84626,-54.09684
2019-10-06 21:40:00+00:00,247.2131,9.3,13.29,47.84626,-54.09684
2019-10-06 21:50:00+00:00,242.9698,9.3,13.29,47.84626,-54.09684
2019-10-06 22:00:00+00:00,243.1281,9.3,13.13,47.84626,-54.09684
2019-10-06 22:10:00+00:00,239.3581,9.3,12.97,47.84626,-54.09684
2019-10-06 22:20:00+00:00,234.2197,9.3,13.05,47.84626,-54.09684
2019-10-06 22:30:00+00:00,240.6147,9.3,12.97,47.84626,-54.09684
2019-10-06 22:40:00+00:00,243.0548,9.3,13.05,47.84626,-54.09684
2019-10-06 22:50:00+00:00,236.8797,9.3,13.05,47.84626,-54.09684
2019-10-06 23:00:00+00:00,233.4798,9.3,12.97,47.84626,-54.09684
2019-10-06 23:10:00+00:00,238.423,9.3,12.81,47.84626,-54.09684
2019-10-06 23:20:00+00:00,236.6331,9.3,12.97,47.84626,-54.09684
2019-10-06 23:30:00+00:00,233.4514,9.3,12.97,47.84626,-54.09684
2019-10-06 23:40:00+00:00,233.9265,9.3,12.97,47.84626,-54.09684
2019-10-06 23:50:00+00:00,233.9848,9.3,12.97,47.84626,-54.09684
